Time,TemperatureF,DewpointF,PressureIn,WindDirection,WindDirectionDegrees,WindSpeedMPH,WindSpeedGustMPH,Humidity,HourlyPrecipIn,Conditions,Clouds,dailyrainin,SolarRadiationWatts/m^2,SoftwareType,DateUTC
2013-08-16 00:01:00,61.7,58.0,30.12,North,355,0.0,1.0,88,0.00,,,0.00,0,HR-IXPWINDi_r2_v1.2.,2013-08-16 04:01:00,
2013-08-16 00:06:00,61.3,58.0,30.12,North,355,0.0,1.0,89,0.00,,,0.00,0,HR-IXPWINDi_r2_v1.2.,2013-08-16 04:06:00,
2013-08-16 00:11:00,60.9,57.6,30.12,North,355,0.0,2.0,89,0.00,,,0.00,0,HR-IXPWINDi_r2_v1.2.,2013-08-16 04:11:00,
2013-08-16 00:16:00,60.8,57.8,30.12,North,355,0.0,2.0,90,0.00,,,0.00,0,HR-IXPWINDi_r2_v1.2.,2013-08-16 04:16:00,
2013-08-16 00:22:00,60.7,57.7,30.12,North,355,0.0,1.0,90,0.00,,,0.00,0,HR-IXPWINDi_r2_v1.2.,2013-08-16 04:22:00,
2013-08-16 00:27:00,60.7,57.7,30.12,North,355,0.0,1.0,90,0.00,,,0.00,0,HR-IXPWINDi_r2_v1.2.,2013-08-16 04:27:00,
2013-08-16 00:32:00,60.3,57.6,30.12,North,355,0.0,1.0,91,0.00,,,0.00,0,HR-IXPWINDi_r2_v1.2.,2013-08-16 04:32:00,
2013-08-16 00:37:00,59.9,57.2,30.12,North,355,0.0,0.0,91,0.00,,,0.00,0,HR-IXPWINDi_r2_v1.2.,2013-08-16 04:37:00,
2013-08-16 00:42:00,60.0,57.6,30.12,North,355,0.0,0.0,92,0.00,,,0.00,0,HR-IXPWINDi_r2_v1.2.,2013-08-16 04:42:00,
2013-08-16 00:47:00,60.2,57.8,30.12,North,355,0.0,0.0,92,0.00,,,0.00,0,HR-IXPWINDi_r2_v1.2.,2013-08-16 04:47:00,
2013-08-16 00:52:00,59.8,57.4,30.12,North,355,0.0,1.0,92,0.00,,,0.00,0,HR-IXPWINDi_r2_v1.2.,2013-08-16 04:52:00,
2013-08-16 00:57:00,59.8,57.7,30.12,North,355,0.0,1.0,93,0.00,,,0.00,0,HR-IXPWINDi_r2_v1.2.,2013-08-16 04:57:00,
2013-08-16 01:02:00,59.7,57.6,30.12,North,355,0.0,0.0,93,0.00,,,0.00,0,HR-IXPWINDi_r2_v1.2.,2013-08-16 05:02:00,
2013-08-16 01:08:00,59.6,57.5,30.12,North,355,0.0,0.0,93,0.00,,,0.00,0,HR-IXPWINDi_r2_v1.2.,2013-08-16 05:08:00,
2013-08-16 01:13:00,59.7,57.6,30.12,North,355,0.0,0.0,93,0.00,,,0.00,0,HR-IXPWINDi_r2_v1.2.,2013-08-16 05:13:00,
2013-08-16 01:20:00,59.9,57.8,30.12,North,355,0.0,0.0,93,0.00,,,0.00,0,HR-IXPWINDi_r2_v1.2.,2013-08-16 05:20:00,
2013-08-16 01:25:00,59.9,57.8,30.12,North,355,0.0,0.0,93,0.00,,,0.00,0,HR-IXPWINDi_r2_v1.2.,2013-08-16 05:25:00,
2013-08-16 01:30:00,59.8,57.7,30.12,North,355,0.0,0.0,93,0.00,,,0.00,0,HR-IXPWINDi_r2_v1.2.,2013-08-16 05:30:00,
2013-08-16 01:36:00,59.6,57.5,30.12,North,355,0.0,0.0,93,0.00,,,0.00,0,HR-IXPWINDi_r2_v1.2.,2013-08-16 05:36:00,
2013-08-16 01:41:00,59.3,57.2,30.12,North,355,0.0,0.0,93,0.00,,,0.00,0,HR-IXPWINDi_r2_v1.2.,2013-08-16 05:41:00,
2013-08-16 01:46:00,59.3,57.5,30.12,North,355,0.0,0.0,94,0.00,,,0.00,0,HR-IXPWINDi_r2_v1.2.,2013-08-16 05:46:00,
2013-08-16 01:51:00,59.1,57.3,30.12,North,355,0.0,1.0,94,0.00,,,0.00,0,HR-IXPWINDi_r2_v1.2.,2013-08-16 05:51:00,
2013-08-16 01:56:00,58.9,57.1,30.12,North,355,0.0,1.0,94,0.00,,,0.00,0,HR-IXPWINDi_r2_v1.2.,2013-08-16 05:56:00,
2013-08-16 02:02:00,58.8,57.0,30.11,North,355,0.0,0.0,94,0.00,,,0.00,0,HR-IXPWINDi_r2_v1.2.,2013-08-16 06:02:00,
2013-08-16 02:07:00,58.7,56.9,30.11,North,355,0.0,0.0,94,0.00,,,0.00,0,HR-IXPWINDi_r2_v1.2.,2013-08-16 06:07:00,
2013-08-16 02:12:00,58.4,56.6,30.11,North,355,0.0,1.0,94,0.00,,,0.00,0,HR-IXPWINDi_r2_v1.2.,2013-08-16 06:12:00,
2013-08-16 02:17:00,58.3,56.8,30.11,North,355,0.0,1.0,95,0.00,,,0.00,0,HR-IXPWINDi_r2_v1.2.,2013-08-16 06:17:00,
2013-08-16 02:23:00,58.5,56.7,30.11,North,355,0.0,1.0,94,0.00,,,0.00,0,HR-IXPWINDi_r2_v1.2.,2013-08-16 06:23:00,
2013-08-16 02:28:00,58.7,56.9,30.11,North,355,0.0,1.0,94,0.00,,,0.00,0,HR-IXPWINDi_r2_v1.2.,2013-08-16 06:28:00,
2013-08-16 02:33:00,58.4,56.3,30.11,North,355,0.0,1.0,93,0.00,,,0.00,0,HR-IXPWINDi_r2_v1.2.,2013-08-16 06:33:00,
2013-08-16 02:38:00,58.1,56.3,30.11,North,355,0.0,0.0,94,0.00,,,0.00,0,HR-IXPWINDi_r2_v1.2.,2013-08-16 06:38:00,
2013-08-16 02:43:00,58.0,56.2,30.11,North,355,0.0,0.0,94,0.00,,,0.00,0,HR-IXPWINDi_r2_v1.2.,2013-08-16 06:43:00,
2013-08-16 02:48:00,58.2,56.4,30.11,North,355,0.0,1.0,94,0.00,,,0.00,0,HR-IXPWINDi_r2_v1.2.,2013-08-16 06:48:00,
2013-08-16 02:53:00,58.3,56.5,30.10,North,355,0.0,1.0,94,0.00,,,0.00,0,HR-IXPWINDi_r2_v1.2.,2013-08-16 06:53:00,
2013-08-16 02:59:00,57.9,56.1,30.10,North,355,0.0,0.0,94,0.00,,,0.00,0,HR-IXPWINDi_r2_v1.2.,2013-08-16 06:59:00,
2013-08-16 03:04:00,57.7,55.9,30.10,North,355,0.0,0.0,94,0.00,,,0.00,0,HR-IXPWINDi_r2_v1.2.,2013-08-16 07:04:00,
2013-08-16 03:09:00,57.5,55.7,30.09,North,355,0.0,0.0,94,0.00,,,0.00,0,HR-IXPWINDi_r2_v1.2.,2013-08-16 07:09:00,
2013-08-16 03:14:00,57.1,55.3,30.09,North,355,0.0,0.0,94,0.00,,,0.00,0,HR-IXPWINDi_r2_v1.2.,2013-08-16 07:14:00,
2013-08-16 03:20:00,57.3,55.8,30.09,North,355,0.0,0.0,95,0.00,,,0.00,0,HR-IXPWINDi_r2_v1.2.,2013-08-16 07:20:00,
2013-08-16 03:25:00,57.2,55.7,30.09,North,355,0.0,0.0,95,0.00,,,0.00,0,HR-IXPWINDi_r2_v1.2.,2013-08-16 07:25:00,
2013-08-16 03:30:00,57.4,55.9,30.09,North,355,0.0,0.0,95,0.00,,,0.00,0,HR-IXPWINDi_r2_v1.2.,2013-08-16 07:30:00,
2013-08-16 03:35:00,57.6,56.1,30.09,North,355,0.0,0.0,95,0.00,,,0.00,0,HR-IXPWINDi_r2_v1.2.,2013-08-16 07:35:00,
2013-08-16 03:40:00,57.3,55.8,30.08,North,355,0.0,0.0,95,0.00,,,0.00,0,HR-IXPWINDi_r2_v1.2.,2013-08-16 07:40:00,
2013-08-16 03:45:00,57.2,55.7,30.08,North,355,0.0,0.0,95,0.00,,,0.00,0,HR-IXPWINDi_r2_v1.2.,2013-08-16 07:45:00,
2013-08-16 03:51:00,57.1,55.6,30.08,North,355,0.0,0.0,95,0.00,,,0.00,0,HR-IXPWINDi_r2_v1.2.,2013-08-16 07:51:00,
2013-08-16 03:56:00,57.2,55.7,30.08,North,355,0.0,0.0,95,0.00,,,0.00,0,HR-IXPWINDi_r2_v1.2.,2013-08-16 07:56:00,
2013-08-16 04:01:00,57.4,55.9,30.08,North,355,0.0,0.0,95,0.00,,,0.00,0,HR-IXPWINDi_r2_v1.2.,2013-08-16 08:01:00,
2013-08-16 04:06:00,57.2,55.4,30.08,North,355,0.0,0.0,94,0.00,,,0.00,0,HR-IXPWINDi_r2_v1.2.,2013-08-16 08:06:00,
2013-08-16 04:12:00,56.9,55.4,30.09,North,355,0.0,0.0,95,0.00,,,0.00,0,HR-IXPWINDi_r2_v1.2.,2013-08-16 08:12:00,
2013-08-16 04:17:00,57.3,55.8,30.08,North,355,0.0,0.0,95,0.00,,,0.00,0,HR-IXPWINDi_r2_v1.2.,2013-08-16 08:17:00,
2013-08-16 04:22:00,57.3,55.8,30.08,North,355,0.0,0.0,95,0.00,,,0.00,0,HR-IXPWINDi_r2_v1.2.,2013-08-16 08:22:00,
2013-08-16 04:27:00,57.6,56.1,30.08,North,355,0.0,0.0,95,0.00,,,0.00,0,HR-IXPWINDi_r2_v1.2.,2013-08-16 08:27:00,
2013-08-16 04:32:00,57.7,56.2,30.08,NNW,346,0.0,0.0,95,0.00,,,0.00,0,HR-IXPWINDi_r2_v1.2.,2013-08-16 08:32:00,
2013-08-16 04:37:00,57.5,55.7,30.09,NNW,346,0.0,0.0,94,0.00,,,0.00,0,HR-IXPWINDi_r2_v1.2.,2013-08-16 08:37:00,
2013-08-16 04:43:00,57.5,56.0,30.09,NNW,344,0.0,0.0,95,0.00,,,0.00,0,HR-IXPWINDi_r2_v1.2.,2013-08-16 08:43:00,
2013-08-16 04:48:00,57.7,56.2,30.09,NNW,344,0.0,0.0,95,0.00,,,0.00,0,HR-IXPWINDi_r2_v1.2.,2013-08-16 08:48:00,
2013-08-16 04:53:00,57.9,56.4,30.09,NNW,344,0.0,0.0,95,0.00,,,0.00,0,HR-IXPWINDi_r2_v1.2.,2013-08-16 08:53:00,
2013-08-16 04:58:00,58.1,56.3,30.09,NNW,344,0.0,0.0,94,0.00,,,0.00,0,HR-IXPWINDi_r2_v1.2.,2013-08-16 08:58:00,
2013-08-16 05:03:00,58.3,56.5,30.09,NNW,344,0.0,0.0,94,0.00,,,0.00,0,HR-IXPWINDi_r2_v1.2.,2013-08-16 09:03:00,
2013-08-16 05:09:00,58.2,56.4,30.09,NNW,344,0.0,0.0,94,0.00,,,0.00,0,HR-IXPWINDi_r2_v1.2.,2013-08-16 09:09:00,
2013-08-16 05:14:00,58.0,56.2,30.09,NNW,344,0.0,0.0,94,0.00,,,0.00,0,HR-IXPWINDi_r2_v1.2.,2013-08-16 09:14:00,
2013-08-16 05:19:00,58.2,56.7,30.10,NNW,344,0.0,0.0,95,0.00,,,0.00,0,HR-IXPWINDi_r2_v1.2.,2013-08-16 09:19:00,
2013-08-16 05:24:00,58.1,56.3,30.10,NNW,344,0.0,0.0,94,0.00,,,0.00,0,HR-IXPWINDi_r2_v1.2.,2013-08-16 09:24:00,
2013-08-16 05:30:00,58.1,56.3,30.10,NNW,344,0.0,0.0,94,0.00,,,0.00,0,HR-IXPWINDi_r2_v1.2.,2013-08-16 09:30:00,
2013-08-16 05:35:00,58.0,56.2,30.10,NNW,344,0.0,0.0,94,0.00,,,0.00,0,HR-IXPWINDi_r2_v1.2.,2013-08-16 09:35:00,
2013-08-16 05:40:00,58.1,56.3,30.10,NNW,344,0.0,0.0,94,0.00,,,0.00,0,HR-IXPWINDi_r2_v1.2.,2013-08-16 09:40:00,
2013-08-16 05:45:00,58.1,56.3,30.10,NNW,344,0.0,0.0,94,0.00,,,0.00,0,HR-IXPWINDi_r2_v1.2.,2013-08-16 09:45:00,
2013-08-16 05:50:00,58.4,56.9,30.10,NNW,344,0.0,0.0,95,0.00,,,0.00,0,HR-IXPWINDi_r2_v1.2.,2013-08-16 09:50:00,
2013-08-16 05:56:00,58.6,57.1,30.10,NNW,344,0.0,0.0,95,0.00,,,0.00,0,HR-IXPWINDi_r2_v1.2.,2013-08-16 09:56:00,
2013-08-16 06:01:00,58.6,57.1,30.10,NNW,344,0.0,0.0,95,0.00,,,0.00,0,HR-IXPWINDi_r2_v1.2.,2013-08-16 10:01:00,
2013-08-16 06:06:00,58.4,56.9,30.11,NNW,344,0.0,0.0,95,0.00,,,0.00,0,HR-IXPWINDi_r2_v1.2.,2013-08-16 10:06:00,
2013-08-16 06:11:00,58.4,56.9,30.11,NNW,344,0.0,0.0,95,0.00,,,0.00,0,HR-IXPWINDi_r2_v1.2.,2013-08-16 10:11:00,
2013-08-16 06:16:00,58.5,57.0,30.11,NNW,344,0.0,0.0,95,0.00,,,0.00,0,HR-IXPWINDi_r2_v1.2.,2013-08-16 10:16:00,
2013-08-16 06:21:00,58.5,57.0,30.11,NNW,344,0.0,0.0,95,0.00,,,0.00,0,HR-IXPWINDi_r2_v1.2.,2013-08-16 10:21:00,
2013-08-16 06:27:00,58.5,57.0,30.11,NNW,344,0.0,0.0,95,0.00,,,0.00,0,HR-IXPWINDi_r2_v1.2.,2013-08-16 10:27:00,
2013-08-16 06:32:00,58.5,57.0,30.11,NNW,344,0.0,0.0,95,0.00,,,0.00,0,HR-IXPWINDi_r2_v1.2.,2013-08-16 10:32:00,
2013-08-16 06:37:00,58.6,57.1,30.11,NNW,344,0.0,0.0,95,0.00,,,0.00,0,HR-IXPWINDi_r2_v1.2.,2013-08-16 10:37:00,
2013-08-16 06:42:00,58.7,57.2,30.11,NNW,344,0.0,0.0,95,0.00,,,0.00,0,HR-IXPWINDi_r2_v1.2.,2013-08-16 10:42:00,
2013-08-16 06:47:00,58.9,57.4,30.11,NNW,344,0.0,0.0,95,0.00,,,0.00,0,HR-IXPWINDi_r2_v1.2.,2013-08-16 10:47:00,
2013-08-16 06:52:00,59.0,57.2,30.11,NNW,344,0.0,0.0,94,0.00,,,0.00,0,HR-IXPWINDi_r2_v1.2.,2013-08-16 10:52:00,
2013-08-16 06:57:00,58.9,57.1,30.12,NNW,344,0.0,0.0,94,0.00,,,0.00,0,HR-IXPWINDi_r2_v1.2.,2013-08-16 10:57:00,
2013-08-16 07:03:00,58.7,56.9,30.11,NNW,344,0.0,0.0,94,0.00,,,0.00,0,HR-IXPWINDi_r2_v1.2.,2013-08-16 11:03:00,
2013-08-16 07:08:00,58.9,57.4,30.11,NNW,344,0.0,0.0,95,0.00,,,0.00,7,HR-IXPWINDi_r2_v1.2.,2013-08-16 11:08:00,
2013-08-16 07:13:00,59.1,57.6,30.12,NNW,344,0.0,0.0,95,0.00,,,0.00,7,HR-IXPWINDi_r2_v1.2.,2013-08-16 11:13:00,
2013-08-16 07:18:00,59.1,57.3,30.12,NNW,344,0.0,0.0,94,0.00,,,0.00,9,HR-IXPWINDi_r2_v1.2.,2013-08-16 11:18:00,
2013-08-16 07:24:00,58.9,57.1,30.12,NNW,344,0.0,0.0,94,0.00,,,0.00,11,HR-IXPWINDi_r2_v1.2.,2013-08-16 11:24:00,
2013-08-16 07:29:00,58.9,57.4,30.12,NNW,344,0.0,0.0,95,0.00,,,0.00,9,HR-IXPWINDi_r2_v1.2.,2013-08-16 11:29:00,
2013-08-16 07:34:00,58.9,57.4,30.12,NNW,344,0.0,0.0,95,0.00,,,0.00,12,HR-IXPWINDi_r2_v1.2.,2013-08-16 11:34:00,
2013-08-16 07:39:00,58.9,57.4,30.12,NNW,344,0.0,0.0,95,0.00,,,0.00,18,HR-IXPWINDi_r2_v1.2.,2013-08-16 11:39:00,
2013-08-16 07:44:00,58.9,57.4,30.12,NNW,344,0.0,0.0,95,0.00,,,0.00,30,HR-IXPWINDi_r2_v1.2.,2013-08-16 11:44:00,
2013-08-16 07:49:00,58.9,57.4,30.12,NNW,344,0.0,0.0,95,0.00,,,0.00,30,HR-IXPWINDi_r2_v1.2.,2013-08-16 11:49:00,
2013-08-16 07:54:00,59.1,57.6,30.12,NNW,344,0.0,0.0,95,0.00,,,0.00,23,HR-IXPWINDi_r2_v1.2.,2013-08-16 11:54:00,
2013-08-16 07:59:00,59.2,57.7,30.12,NNW,344,0.0,0.0,95,0.00,,,0.00,25,HR-IXPWINDi_r2_v1.2.,2013-08-16 11:59:00,
2013-08-16 08:05:00,59.1,57.3,30.13,NNW,344,0.0,0.0,94,0.00,,,0.00,26,HR-IXPWINDi_r2_v1.2.,2013-08-16 12:05:00,
2013-08-16 08:10:00,59.3,57.5,30.13,NNW,344,0.0,0.0,94,0.00,,,0.00,32,HR-IXPWINDi_r2_v1.2.,2013-08-16 12:10:00,
2013-08-16 08:15:00,59.6,57.8,30.13,NNW,344,4.0,4.0,94,0.00,,,0.00,33,HR-IXPWINDi_r2_v1.2.,2013-08-16 12:15:00,
2013-08-16 08:20:00,59.6,57.8,30.13,NNW,344,0.0,4.0,94,0.00,,,0.00,40,HR-IXPWINDi_r2_v1.2.,2013-08-16 12:20:00,
2013-08-16 08:26:00,59.6,57.8,30.12,NNW,346,2.0,4.0,94,0.00,,,0.00,46,HR-IXPWINDi_r2_v1.2.,2013-08-16 12:26:00,
2013-08-16 08:31:00,59.9,57.8,30.12,NNW,346,0.0,4.0,93,0.00,,,0.00,46,HR-IXPWINDi_r2_v1.2.,2013-08-16 12:31:00,
2013-08-16 08:36:00,60.0,57.6,30.12,NNW,346,0.0,2.0,92,0.00,,,0.00,54,HR-IXPWINDi_r2_v1.2.,2013-08-16 12:36:00,
2013-08-16 08:41:00,60.1,57.7,30.13,NNW,346,0.0,2.0,92,0.00,,,0.00,74,HR-IXPWINDi_r2_v1.2.,2013-08-16 12:41:00,
2013-08-16 08:47:00,60.3,57.9,30.13,West,281,0.0,3.0,92,0.00,,,0.00,44,HR-IXPWINDi_r2_v1.2.,2013-08-16 12:47:00,
2013-08-16 08:52:00,60.0,57.6,30.13,West,280,0.0,4.0,92,0.00,,,0.00,46,HR-IXPWINDi_r2_v1.2.,2013-08-16 12:52:00,
2013-08-16 08:57:00,60.1,57.7,30.13,West,280,0.0,4.0,92,0.00,,,0.00,49,HR-IXPWINDi_r2_v1.2.,2013-08-16 12:57:00,
2013-08-16 09:02:00,60.4,58.3,30.13,West,280,0.0,1.0,93,0.00,,,0.00,47,HR-IXPWINDi_r2_v1.2.,2013-08-16 13:02:00,
2013-08-16 09:07:00,60.3,57.9,30.13,West,280,0.0,1.0,92,0.00,,,0.00,70,HR-IXPWINDi_r2_v1.2.,2013-08-16 13:07:00,
2013-08-16 09:13:00,60.8,58.4,30.13,West,280,0.0,1.0,92,0.00,,,0.00,83,HR-IXPWINDi_r2_v1.2.,2013-08-16 13:13:00,
2013-08-16 09:18:00,60.9,58.5,30.13,West,280,0.0,2.0,92,0.00,,,0.00,70,HR-IXPWINDi_r2_v1.2.,2013-08-16 13:18:00,
2013-08-16 09:23:00,60.7,58.0,30.13,West,280,0.0,3.0,91,0.00,,,0.00,98,HR-IXPWINDi_r2_v1.2.,2013-08-16 13:23:00,
2013-08-16 09:28:00,60.8,57.8,30.13,West,280,0.0,3.0,90,0.00,,,0.00,113,HR-IXPWINDi_r2_v1.2.,2013-08-16 13:28:00,
2013-08-16 09:34:00,61.4,58.1,30.13,West,280,0.0,0.0,89,0.00,,,0.00,116,HR-IXPWINDi_r2_v1.2.,2013-08-16 13:34:00,
2013-08-16 09:39:00,61.7,58.4,30.13,West,280,0.0,0.0,89,0.00,,,0.00,91,HR-IXPWINDi_r2_v1.2.,2013-08-16 13:39:00,
2013-08-16 09:44:00,61.8,58.5,30.13,West,280,0.0,0.0,89,0.00,,,0.00,123,HR-IXPWINDi_r2_v1.2.,2013-08-16 13:44:00,
2013-08-16 09:49:00,61.9,58.2,30.13,West,280,0.0,1.0,88,0.00,,,0.00,141,HR-IXPWINDi_r2_v1.2.,2013-08-16 13:49:00,
2013-08-16 09:54:00,61.9,57.9,30.12,WNW,288,0.0,2.0,87,0.00,,,0.00,207,HR-IXPWINDi_r2_v1.2.,2013-08-16 13:54:00,
2013-08-16 09:59:00,62.7,58.1,30.12,WNW,288,0.0,2.0,85,0.00,,,0.00,248,HR-IXPWINDi_r2_v1.2.,2013-08-16 13:59:00,
2013-08-16 10:05:00,62.9,57.9,30.13,WSW,257,0.0,4.0,84,0.00,,,0.00,250,HR-IXPWINDi_r2_v1.2.,2013-08-16 14:05:00,
2013-08-16 10:10:00,63.1,58.8,30.13,SW,235,3.0,4.0,86,0.00,,,0.00,221,HR-IXPWINDi_r2_v1.2.,2013-08-16 14:10:00,
2013-08-16 10:15:00,63.1,58.5,30.13,SSE,155,0.0,5.0,85,0.00,,,0.00,234,HR-IXPWINDi_r2_v1.2.,2013-08-16 14:15:00,
2013-08-16 10:20:00,62.7,57.4,30.13,SSE,155,0.0,5.0,83,0.00,,,0.00,218,HR-IXPWINDi_r2_v1.2.,2013-08-16 14:20:00,
2013-08-16 10:25:00,63.3,58.3,30.13,SSE,156,0.0,4.0,84,0.00,,,0.00,221,HR-IXPWINDi_r2_v1.2.,2013-08-16 14:25:00,
2013-08-16 10:31:00,64.0,58.3,30.13,SSE,156,0.0,4.0,82,0.00,,,0.00,271,HR-IXPWINDi_r2_v1.2.,2013-08-16 14:31:00,
2013-08-16 10:36:00,64.0,58.0,30.13,SSE,156,1.0,4.0,81,0.00,,,0.00,302,HR-IXPWINDi_r2_v1.2.,2013-08-16 14:36:00,
2013-08-16 10:41:00,64.4,59.1,30.13,SSE,148,1.0,4.0,83,0.00,,,0.00,343,HR-IXPWINDi_r2_v1.2.,2013-08-16 14:41:00,
2013-08-16 10:47:00,65.2,58.8,30.13,NNE,12,3.0,4.0,80,0.00,,,0.00,348,HR-IXPWINDi_r2_v1.2.,2013-08-16 14:47:00,
2013-08-16 10:52:00,65.3,58.6,30.13,North,11,3.0,5.0,79,0.00,,,0.00,577,HR-IXPWINDi_r2_v1.2.,2013-08-16 14:52:00,
2013-08-16 10:57:00,65.9,58.4,30.12,North,5,1.0,5.0,77,0.00,,,0.00,654,HR-IXPWINDi_r2_v1.2.,2013-08-16 14:57:00,
2013-08-16 11:02:00,66.8,59.3,30.12,West,260,0.0,7.0,77,0.00,,,0.00,800,HR-IXPWINDi_r2_v1.2.,2013-08-16 15:02:00,
2013-08-16 11:07:00,66.2,58.3,30.12,NNW,340,1.0,7.0,76,0.00,,,0.00,666,HR-IXPWINDi_r2_v1.2.,2013-08-16 15:07:00,
2013-08-16 11:13:00,67.2,58.6,30.12,NNE,15,0.0,6.0,74,0.00,,,0.00,640,HR-IXPWINDi_r2_v1.2.,2013-08-16 15:13:00,
2013-08-16 11:18:00,66.8,58.6,30.12,North,355,0.0,6.0,75,0.00,,,0.00,559,HR-IXPWINDi_r2_v1.2.,2013-08-16 15:18:00,
2013-08-16 11:23:00,66.6,58.4,30.12,SSW,193,4.0,8.0,75,0.00,,,0.00,814,HR-IXPWINDi_r2_v1.2.,2013-08-16 15:23:00,
2013-08-16 11:28:00,66.9,58.7,30.13,NW,323,4.0,9.0,75,0.00,,,0.00,728,HR-IXPWINDi_r2_v1.2.,2013-08-16 15:28:00,
2013-08-16 11:33:00,67.6,58.2,30.13,NNW,342,0.0,9.0,72,0.00,,,0.00,575,HR-IXPWINDi_r2_v1.2.,2013-08-16 15:33:00,
2013-08-16 11:39:00,67.8,57.6,30.13,South,175,1.0,8.0,70,0.00,,,0.00,385,HR-IXPWINDi_r2_v1.2.,2013-08-16 15:39:00,
2013-08-16 11:44:00,67.0,57.6,30.13,SE,124,1.0,8.0,72,0.00,,,0.00,480,HR-IXPWINDi_r2_v1.2.,2013-08-16 15:44:00,
2013-08-16 11:49:00,67.8,58.4,30.13,SSW,196,4.0,7.0,72,0.00,,,0.00,392,HR-IXPWINDi_r2_v1.2.,2013-08-16 15:49:00,
2013-08-16 11:54:00,68.0,57.8,30.13,South,189,2.0,7.0,70,0.00,,,0.00,469,HR-IXPWINDi_r2_v1.2.,2013-08-16 15:54:00,
2013-08-16 11:59:00,67.2,57.4,30.13,SSE,159,0.0,6.0,71,0.00,,,0.00,468,HR-IXPWINDi_r2_v1.2.,2013-08-16 15:59:00,
2013-08-16 12:04:00,68.5,57.9,30.13,SSE,165,0.0,5.0,69,0.00,,,0.00,638,HR-IXPWINDi_r2_v1.2.,2013-08-16 16:04:00,
2013-08-16 12:09:00,68.6,58.0,30.13,ESE,114,9.0,11.0,69,0.00,,,0.00,875,HR-IXPWINDi_r2_v1.2.,2013-08-16 16:09:00,
2013-08-16 12:14:00,68.6,57.6,30.12,SSE,154,6.0,12.0,68,0.00,,,0.00,884,HR-IXPWINDi_r2_v1.2.,2013-08-16 16:14:00,
2013-08-16 12:19:00,68.9,57.4,30.12,East,94,5.0,12.0,67,0.00,,,0.00,907,HR-IXPWINDi_r2_v1.2.,2013-08-16 16:19:00,
2013-08-16 12:25:00,68.8,57.3,30.12,SSE,150,9.0,13.0,67,0.00,,,0.00,909,HR-IXPWINDi_r2_v1.2.,2013-08-16 16:25:00,
2013-08-16 12:30:00,69.5,58.8,30.12,ESE,123,8.0,13.0,69,0.00,,,0.00,888,HR-IXPWINDi_r2_v1.2.,2013-08-16 16:30:00,
2013-08-16 12:35:00,69.9,57.1,30.12,SSW,207,0.0,12.0,64,0.00,,,0.00,645,HR-IXPWINDi_r2_v1.2.,2013-08-16 16:35:00,
2013-08-16 12:41:00,69.8,58.3,30.12,South,175,2.0,11.0,67,0.00,,,0.00,838,HR-IXPWINDi_r2_v1.2.,2013-08-16 16:41:00,
2013-08-16 12:46:00,69.8,57.0,30.12,ESE,122,0.0,8.0,64,0.00,,,0.00,905,HR-IXPWINDi_r2_v1.2.,2013-08-16 16:46:00,
2013-08-16 12:51:00,69.9,58.0,30.11,South,182,7.0,8.0,66,0.00,,,0.00,932,HR-IXPWINDi_r2_v1.2.,2013-08-16 16:51:00,
2013-08-16 12:56:00,70.3,58.3,30.11,SE,146,0.0,8.0,66,0.00,,,0.00,684,HR-IXPWINDi_r2_v1.2.,2013-08-16 16:56:00,
2013-08-16 13:02:00,71.8,58.0,30.11,SE,134,6.0,7.0,62,0.00,,,0.00,434,HR-IXPWINDi_r2_v1.2.,2013-08-16 17:02:00,
2013-08-16 13:07:00,69.9,58.0,30.11,SE,139,0.0,8.0,66,0.00,,,0.00,557,HR-IXPWINDi_r2_v1.2.,2013-08-16 17:07:00,
2013-08-16 13:12:00,70.3,57.5,30.11,SSE,155,6.0,8.0,64,0.00,,,0.00,666,HR-IXPWINDi_r2_v1.2.,2013-08-16 17:12:00,
2013-08-16 13:17:00,70.0,57.6,30.11,SSE,151,7.0,12.0,65,0.00,,,0.00,1069,HR-IXPWINDi_r2_v1.2.,2013-08-16 17:17:00,
2013-08-16 13:23:00,70.6,58.6,30.10,SE,130,5.0,12.0,66,0.00,,,0.00,675,HR-IXPWINDi_r2_v1.2.,2013-08-16 17:23:00,
2013-08-16 13:28:00,70.5,57.7,30.10,SE,142,7.0,11.0,64,0.00,,,0.00,925,HR-IXPWINDi_r2_v1.2.,2013-08-16 17:28:00,
2013-08-16 13:33:00,70.0,58.1,30.10,SE,142,10.0,15.0,66,0.00,,,0.00,898,HR-IXPWINDi_r2_v1.2.,2013-08-16 17:33:00,
2013-08-16 13:38:00,70.4,58.0,30.10,ESE,117,4.0,15.0,65,0.00,,,0.00,587,HR-IXPWINDi_r2_v1.2.,2013-08-16 17:38:00,
2013-08-16 13:43:00,71.6,59.2,30.10,ESE,119,7.0,14.0,65,0.00,,,0.00,877,HR-IXPWINDi_r2_v1.2.,2013-08-16 17:43:00,
2013-08-16 13:48:00,70.9,57.6,30.10,ESE,116,1.0,9.0,63,0.00,,,0.00,900,HR-IXPWINDi_r2_v1.2.,2013-08-16 17:48:00,
2013-08-16 13:53:00,71.6,58.7,30.10,SE,138,4.0,9.0,64,0.00,,,0.00,831,HR-IXPWINDi_r2_v1.2.,2013-08-16 17:53:00,
2013-08-16 13:59:00,71.5,58.6,30.10,ESE,110,4.0,9.0,64,0.00,,,0.00,886,HR-IXPWINDi_r2_v1.2.,2013-08-16 17:59:00,
2013-08-16 14:04:00,71.7,58.4,30.10,SE,126,5.0,9.0,63,0.00,,,0.00,868,HR-IXPWINDi_r2_v1.2.,2013-08-16 18:04:00,
2013-08-16 14:09:00,72.3,58.5,30.10,SE,142,6.0,9.0,62,0.00,,,0.00,865,HR-IXPWINDi_r2_v1.2.,2013-08-16 18:09:00,
2013-08-16 14:14:00,71.8,58.5,30.10,ESE,115,4.0,9.0,63,0.00,,,0.00,861,HR-IXPWINDi_r2_v1.2.,2013-08-16 18:14:00,
2013-08-16 14:19:00,73.7,59.4,30.10,South,185,0.0,8.0,61,0.00,,,0.00,838,HR-IXPWINDi_r2_v1.2.,2013-08-16 18:19:00,
2013-08-16 14:24:00,72.4,59.0,30.10,SE,125,6.0,13.0,63,0.00,,,0.00,851,HR-IXPWINDi_r2_v1.2.,2013-08-16 18:24:00,
2013-08-16 14:31:00,71.9,59.9,30.09,ESE,117,5.0,14.0,66,0.00,,,0.00,849,HR-IXPWINDi_r2_v1.2.,2013-08-16 18:31:00,
2013-08-16 14:36:00,71.9,59.4,30.09,ESE,119,7.0,14.0,65,0.00,,,0.00,826,HR-IXPWINDi_r2_v1.2.,2013-08-16 18:36:00,
2013-08-16 14:41:00,71.6,59.6,30.09,SE,126,7.0,14.0,66,0.00,,,0.00,824,HR-IXPWINDi_r2_v1.2.,2013-08-16 18:41:00,
2013-08-16 14:46:00,72.2,60.2,30.09,SE,137,6.0,14.0,66,0.00,,,0.00,847,HR-IXPWINDi_r2_v1.2.,2013-08-16 18:46:00,
2013-08-16 14:51:00,72.3,60.2,30.09,SE,130,7.0,12.0,66,0.00,,,0.00,541,HR-IXPWINDi_r2_v1.2.,2013-08-16 18:51:00,
2013-08-16 14:56:00,72.6,59.7,30.09,SSE,149,6.0,11.0,64,0.00,,,0.00,494,HR-IXPWINDi_r2_v1.2.,2013-08-16 18:56:00,
2013-08-16 15:02:00,72.9,60.4,30.09,SSE,158,0.0,8.0,65,0.00,,,0.00,380,HR-IXPWINDi_r2_v1.2.,2013-08-16 19:02:00,
2013-08-16 15:07:00,72.9,60.0,30.09,SE,126,5.0,11.0,64,0.00,,,0.00,893,HR-IXPWINDi_r2_v1.2.,2013-08-16 19:07:00,
2013-08-16 15:12:00,73.1,60.1,30.09,ESE,121,0.0,11.0,64,0.00,,,0.00,504,HR-IXPWINDi_r2_v1.2.,2013-08-16 19:12:00,
2013-08-16 15:17:00,72.5,59.6,30.08,SE,124,6.0,8.0,64,0.00,,,0.00,352,HR-IXPWINDi_r2_v1.2.,2013-08-16 19:17:00,
2013-08-16 15:22:00,72.7,60.6,30.08,SE,126,7.0,9.0,66,0.00,,,0.00,413,HR-IXPWINDi_r2_v1.2.,2013-08-16 19:22:00,
2013-08-16 15:27:00,72.6,60.5,30.08,SE,129,4.0,10.0,66,0.00,,,0.00,366,HR-IXPWINDi_r2_v1.2.,2013-08-16 19:27:00,
2013-08-16 15:32:00,73.1,60.6,30.08,ESE,119,0.0,10.0,65,0.00,,,0.00,773,HR-IXPWINDi_r2_v1.2.,2013-08-16 19:32:00,
2013-08-16 15:38:00,75.0,61.5,30.07,South,171,4.0,9.0,63,0.00,,,0.00,744,HR-IXPWINDi_r2_v1.2.,2013-08-16 19:38:00,
2013-08-16 15:43:00,73.6,60.6,30.07,ESE,123,4.0,9.0,64,0.00,,,0.00,737,HR-IXPWINDi_r2_v1.2.,2013-08-16 19:43:00,
2013-08-16 15:48:00,74.2,62.1,30.07,SSE,153,6.0,9.0,66,0.00,,,0.00,752,HR-IXPWINDi_r2_v1.2.,2013-08-16 19:48:00,
2013-08-16 15:53:00,73.5,61.0,30.07,SSE,166,2.0,8.0,65,0.00,,,0.00,773,HR-IXPWINDi_r2_v1.2.,2013-08-16 19:53:00,
2013-08-16 15:58:00,73.1,60.1,30.07,SSW,195,2.0,7.0,64,0.00,,,0.00,468,HR-IXPWINDi_r2_v1.2.,2013-08-16 19:58:00,
2013-08-16 16:04:00,73.5,62.2,30.07,SSE,151,4.0,7.0,68,0.00,,,0.00,608,HR-IXPWINDi_r2_v1.2.,2013-08-16 20:04:00,
2013-08-16 16:09:00,74.5,61.5,30.07,SE,130,4.0,7.0,64,0.00,,,0.00,529,HR-IXPWINDi_r2_v1.2.,2013-08-16 20:09:00,
2013-08-16 16:14:00,73.4,61.7,30.07,SSE,159,5.0,6.0,67,0.00,,,0.00,394,HR-IXPWINDi_r2_v1.2.,2013-08-16 20:14:00,
2013-08-16 16:20:00,73.3,61.6,30.07,SSW,194,3.0,6.0,67,0.00,,,0.00,367,HR-IXPWINDi_r2_v1.2.,2013-08-16 20:20:00,
2013-08-16 16:25:00,73.0,60.9,30.07,SSE,151,1.0,6.0,66,0.00,,,0.00,434,HR-IXPWINDi_r2_v1.2.,2013-08-16 20:25:00,
2013-08-16 16:30:00,73.1,61.4,30.07,ESE,123,4.0,7.0,67,0.00,,,0.00,436,HR-IXPWINDi_r2_v1.2.,2013-08-16 20:30:00,
2013-08-16 16:35:00,73.8,61.2,30.06,SE,128,4.0,7.0,65,0.00,,,0.00,283,HR-IXPWINDi_r2_v1.2.,2013-08-16 20:35:00,
2013-08-16 16:40:00,73.3,61.2,30.07,SE,137,4.0,11.0,66,0.00,,,0.00,236,HR-IXPWINDi_r2_v1.2.,2013-08-16 20:40:00,
2013-08-16 16:45:00,73.0,60.9,30.06,South,173,4.0,11.0,66,0.00,,,0.00,304,HR-IXPWINDi_r2_v1.2.,2013-08-16 20:45:00,
2013-08-16 16:51:00,73.2,61.1,30.06,SSE,162,4.0,9.0,66,0.00,,,0.00,462,HR-IXPWINDi_r2_v1.2.,2013-08-16 20:51:00,
2013-08-16 16:56:00,73.6,62.3,30.06,SE,128,6.0,11.0,68,0.00,,,0.00,628,HR-IXPWINDi_r2_v1.2.,2013-08-16 20:56:00,
2013-08-16 17:01:00,74.2,62.1,30.06,SSE,148,11.0,11.0,66,0.00,,,0.00,555,HR-IXPWINDi_r2_v1.2.,2013-08-16 21:01:00,
2013-08-16 17:06:00,73.7,61.1,30.06,South,169,4.0,11.0,65,0.00,,,0.00,638,HR-IXPWINDi_r2_v1.2.,2013-08-16 21:06:00,
2013-08-16 17:12:00,73.9,61.8,30.06,SE,131,6.0,11.0,66,0.00,,,0.00,432,HR-IXPWINDi_r2_v1.2.,2013-08-16 21:12:00,
2013-08-16 17:17:00,73.2,61.5,30.06,SE,140,6.0,12.0,67,0.00,,,0.00,596,HR-IXPWINDi_r2_v1.2.,2013-08-16 21:17:00,
2013-08-16 17:22:00,73.2,60.7,30.06,ESE,119,8.0,12.0,65,0.00,,,0.00,606,HR-IXPWINDi_r2_v1.2.,2013-08-16 21:22:00,
2013-08-16 17:28:00,73.5,61.0,30.06,SE,128,9.0,11.0,65,0.00,,,0.00,599,HR-IXPWINDi_r2_v1.2.,2013-08-16 21:28:00,
2013-08-16 17:33:00,72.9,60.8,30.06,SE,136,4.0,9.0,66,0.00,,,0.00,287,HR-IXPWINDi_r2_v1.2.,2013-08-16 21:33:00,
2013-08-16 17:38:00,72.7,60.6,30.06,SE,145,4.0,11.0,66,0.00,,,0.00,255,HR-IXPWINDi_r2_v1.2.,2013-08-16 21:38:00,
2013-08-16 17:43:00,72.4,60.8,30.06,SSE,163,5.0,11.0,67,0.00,,,0.00,207,HR-IXPWINDi_r2_v1.2.,2013-08-16 21:43:00,
2013-08-16 17:48:00,72.3,61.5,30.06,SE,146,5.0,8.0,69,0.00,,,0.00,214,HR-IXPWINDi_r2_v1.2.,2013-08-16 21:48:00,
2013-08-16 17:54:00,72.5,60.9,30.06,SSE,149,4.0,9.0,67,0.00,,,0.00,278,HR-IXPWINDi_r2_v1.2.,2013-08-16 21:54:00,
2013-08-16 17:59:00,72.3,61.1,30.06,SE,132,6.0,12.0,68,0.00,,,0.00,401,HR-IXPWINDi_r2_v1.2.,2013-08-16 21:59:00,
2013-08-16 18:04:00,72.3,61.1,30.06,ESE,123,4.0,12.0,68,0.00,,,0.00,357,HR-IXPWINDi_r2_v1.2.,2013-08-16 22:04:00,
2013-08-16 18:09:00,72.1,60.9,30.06,SE,136,6.0,11.0,68,0.00,,,0.00,155,HR-IXPWINDi_r2_v1.2.,2013-08-16 22:09:00,
2013-08-16 18:14:00,71.9,60.7,30.06,SE,138,8.0,11.0,68,0.00,,,0.00,67,HR-IXPWINDi_r2_v1.2.,2013-08-16 22:14:00,
2013-08-16 18:20:00,71.5,60.3,30.06,SSE,148,6.0,12.0,68,0.00,,,0.00,67,HR-IXPWINDi_r2_v1.2.,2013-08-16 22:20:00,
2013-08-16 18:25:00,71.3,60.1,30.06,SSE,154,5.0,12.0,68,0.00,,,0.00,60,HR-IXPWINDi_r2_v1.2.,2013-08-16 22:25:00,
2013-08-16 18:30:00,71.5,60.3,30.06,SSE,153,4.0,11.0,68,0.00,,,0.00,58,HR-IXPWINDi_r2_v1.2.,2013-08-16 22:30:00,
2013-08-16 18:35:00,71.5,59.9,30.06,ESE,117,2.0,12.0,67,0.00,,,0.00,54,HR-IXPWINDi_r2_v1.2.,2013-08-16 22:35:00,
2013-08-16 18:41:00,71.3,60.5,30.06,SE,146,7.0,12.0,69,0.00,,,0.00,58,HR-IXPWINDi_r2_v1.2.,2013-08-16 22:41:00,
2013-08-16 18:46:00,71.4,60.2,30.06,SSE,158,2.0,11.0,68,0.00,,,0.00,53,HR-IXPWINDi_r2_v1.2.,2013-08-16 22:46:00,
2013-08-16 18:51:00,71.1,59.9,30.06,SSE,148,2.0,11.0,68,0.00,,,0.00,49,HR-IXPWINDi_r2_v1.2.,2013-08-16 22:51:00,
2013-08-16 18:56:00,71.1,60.8,30.06,SSE,147,4.0,7.0,70,0.00,,,0.00,42,HR-IXPWINDi_r2_v1.2.,2013-08-16 22:56:00,
2013-08-16 19:02:00,71.0,59.8,30.06,SE,136,5.0,7.0,68,0.00,,,0.00,37,HR-IXPWINDi_r2_v1.2.,2013-08-16 23:02:00,
2013-08-16 19:07:00,70.9,59.8,30.06,SE,132,5.0,7.0,68,0.00,,,0.00,33,HR-IXPWINDi_r2_v1.2.,2013-08-16 23:07:00,
2013-08-16 19:12:00,70.6,60.3,30.06,ESE,111,0.0,5.0,70,0.00,,,0.00,30,HR-IXPWINDi_r2_v1.2.,2013-08-16 23:12:00,
2013-08-16 19:17:00,70.4,60.1,30.06,SSE,157,4.0,6.0,70,0.00,,,0.00,28,HR-IXPWINDi_r2_v1.2.,2013-08-16 23:17:00,
2013-08-16 19:23:00,70.1,59.8,30.07,SSE,151,1.0,7.0,70,0.00,,,0.00,35,HR-IXPWINDi_r2_v1.2.,2013-08-16 23:23:00,
2013-08-16 19:28:00,70.0,60.1,30.07,SSE,156,0.0,7.0,71,0.00,,,0.00,30,HR-IXPWINDi_r2_v1.2.,2013-08-16 23:28:00,
2013-08-16 19:33:00,69.5,60.8,30.07,North,350,5.0,5.0,74,0.00,,,0.00,26,HR-IXPWINDi_r2_v1.2.,2013-08-16 23:33:00,
2013-08-16 19:38:00,68.9,61.0,30.07,North,350,4.0,5.0,76,0.00,,,0.00,25,HR-IXPWINDi_r2_v1.2.,2013-08-16 23:38:00,
2013-08-16 19:43:00,68.5,60.9,30.08,NNW,343,4.0,5.0,77,0.00,,,0.00,16,HR-IXPWINDi_r2_v1.2.,2013-08-16 23:43:00,
2013-08-16 19:49:00,68.0,60.5,30.08,North,355,4.0,6.0,77,0.00,,,0.00,14,HR-IXPWINDi_r2_v1.2.,2013-08-16 23:49:00,
2013-08-16 19:54:00,68.0,60.1,30.08,NNW,348,3.0,6.0,76,0.00,,,0.00,11,HR-IXPWINDi_r2_v1.2.,2013-08-16 23:54:00,
2013-08-16 19:59:00,67.9,60.0,30.08,North,355,0.0,5.0,76,0.00,,,0.00,9,HR-IXPWINDi_r2_v1.2.,2013-08-16 23:59:00,
2013-08-16 20:04:00,67.9,60.4,30.08,North,355,0.0,5.0,77,0.00,,,0.00,7,HR-IXPWINDi_r2_v1.2.,2013-08-17 00:04:00,
2013-08-16 20:09:00,67.9,59.6,30.08,North,355,0.0,4.0,75,0.00,,,0.00,0,HR-IXPWINDi_r2_v1.2.,2013-08-17 00:09:00,
2013-08-16 20:15:00,67.8,60.3,30.08,North,355,0.0,1.0,77,0.00,,,0.00,0,HR-IXPWINDi_r2_v1.2.,2013-08-17 00:15:00,
2013-08-16 20:21:00,67.1,60.7,30.09,ENE,64,0.0,2.0,80,0.00,,,0.00,0,HR-IXPWINDi_r2_v1.2.,2013-08-17 00:21:00,
2013-08-16 20:26:00,66.5,60.4,30.09,ENE,64,0.0,2.0,81,0.00,,,0.00,0,HR-IXPWINDi_r2_v1.2.,2013-08-17 00:26:00,
2013-08-16 20:31:00,66.2,60.5,30.09,ENE,64,0.0,1.0,82,0.00,,,0.00,0,HR-IXPWINDi_r2_v1.2.,2013-08-17 00:31:00,
2013-08-16 20:36:00,66.1,60.7,30.09,ENE,64,0.0,1.0,83,0.00,,,0.00,0,HR-IXPWINDi_r2_v1.2.,2013-08-17 00:36:00,
2013-08-16 20:41:00,66.1,60.7,30.09,NE,51,0.0,1.0,83,0.00,,,0.00,0,HR-IXPWINDi_r2_v1.2.,2013-08-17 00:41:00,
2013-08-16 20:47:00,66.2,60.1,30.09,North,355,2.0,4.0,81,0.00,,,0.00,0,HR-IXPWINDi_r2_v1.2.,2013-08-17 00:47:00,
2013-08-16 20:52:00,66.2,59.8,30.09,NNW,341,0.0,4.0,80,0.00,,,0.00,0,HR-IXPWINDi_r2_v1.2.,2013-08-17 00:52:00,
2013-08-16 20:57:00,66.5,60.4,30.10,NNW,343,0.0,5.0,81,0.00,,,0.00,0,HR-IXPWINDi_r2_v1.2.,2013-08-17 00:57:00,
2013-08-16 21:02:00,65.6,60.2,30.10,East,82,0.0,5.0,83,0.00,,,0.00,0,HR-IXPWINDi_r2_v1.2.,2013-08-17 01:02:00,
2013-08-16 21:07:00,65.4,60.7,30.10,East,82,0.0,3.0,85,0.00,,,0.00,0,HR-IXPWINDi_r2_v1.2.,2013-08-17 01:07:00,
2013-08-16 21:12:00,65.5,60.5,30.10,East,82,0.0,3.0,84,0.00,,,0.00,0,HR-IXPWINDi_r2_v1.2.,2013-08-17 01:12:00,
2013-08-16 21:17:00,66.1,60.7,30.10,East,82,0.0,1.0,83,0.00,,,0.00,0,HR-IXPWINDi_r2_v1.2.,2013-08-17 01:17:00,
2013-08-16 21:23:00,65.0,60.3,30.10,East,92,1.0,2.0,85,0.00,,,0.00,0,HR-IXPWINDi_r2_v1.2.,2013-08-17 01:23:00,
2013-08-16 21:28:00,64.5,60.5,30.11,East,92,0.0,2.0,87,0.00,,,0.00,0,HR-IXPWINDi_r2_v1.2.,2013-08-17 01:28:00,
2013-08-16 21:33:00,64.1,60.4,30.11,East,92,0.0,2.0,88,0.00,,,0.00,0,HR-IXPWINDi_r2_v1.2.,2013-08-17 01:33:00,
2013-08-16 21:38:00,64.1,60.4,30.11,East,92,0.0,1.0,88,0.00,,,0.00,0,HR-IXPWINDi_r2_v1.2.,2013-08-17 01:38:00,
2013-08-16 21:44:00,64.4,60.4,30.11,NNW,346,2.0,5.0,87,0.00,,,0.00,0,HR-IXPWINDi_r2_v1.2.,2013-08-17 01:44:00,
2013-08-16 21:49:00,64.8,59.8,30.12,North,355,2.0,5.0,84,0.00,,,0.00,0,HR-IXPWINDi_r2_v1.2.,2013-08-17 01:49:00,
2013-08-16 21:54:00,65.2,59.8,30.12,North,355,0.0,4.0,83,0.00,,,0.00,0,HR-IXPWINDi_r2_v1.2.,2013-08-17 01:54:00,
2013-08-16 21:59:00,64.6,59.9,30.12,North,355,0.0,3.0,85,0.00,,,0.00,0,HR-IXPWINDi_r2_v1.2.,2013-08-17 01:59:00,
2013-08-16 22:05:00,64.6,59.9,30.12,North,355,0.0,0.0,85,0.00,,,0.00,0,HR-IXPWINDi_r2_v1.2.,2013-08-17 02:05:00,
2013-08-16 22:10:00,63.8,59.8,30.12,NW,304,0.0,0.0,87,0.00,,,0.00,0,HR-IXPWINDi_r2_v1.2.,2013-08-17 02:10:00,
2013-08-16 22:15:00,63.4,59.7,30.12,West,259,0.0,4.0,88,0.00,,,0.00,0,HR-IXPWINDi_r2_v1.2.,2013-08-17 02:15:00,
2013-08-16 22:21:00,63.4,59.7,30.13,West,259,0.0,4.0,88,0.00,,,0.00,0,HR-IXPWINDi_r2_v1.2.,2013-08-17 02:21:00,
2013-08-16 22:26:00,63.9,59.9,30.13,West,259,0.0,1.0,87,0.00,,,0.00,0,HR-IXPWINDi_r2_v1.2.,2013-08-17 02:26:00,
2013-08-16 22:31:00,63.3,59.6,30.13,West,259,0.0,0.0,88,0.00,,,0.00,0,HR-IXPWINDi_r2_v1.2.,2013-08-17 02:31:00,
2013-08-16 22:36:00,63.5,59.8,30.13,West,259,0.0,0.0,88,0.00,,,0.00,0,HR-IXPWINDi_r2_v1.2.,2013-08-17 02:36:00,
2013-08-16 22:41:00,63.6,59.9,30.13,West,259,0.0,0.0,88,0.00,,,0.00,0,HR-IXPWINDi_r2_v1.2.,2013-08-17 02:41:00,
2013-08-16 22:46:00,63.3,59.6,30.13,West,259,0.0,0.0,88,0.00,,,0.00,0,HR-IXPWINDi_r2_v1.2.,2013-08-17 02:46:00,
2013-08-16 22:52:00,63.2,59.8,30.13,West,259,0.0,0.0,89,0.00,,,0.00,0,HR-IXPWINDi_r2_v1.2.,2013-08-17 02:52:00,
2013-08-16 22:57:00,62.7,59.7,30.12,West,259,0.0,0.0,90,0.00,,,0.00,0,HR-IXPWINDi_r2_v1.2.,2013-08-17 02:57:00,
2013-08-16 23:02:00,62.5,59.5,30.12,West,259,0.0,0.0,90,0.00,,,0.00,0,HR-IXPWINDi_r2_v1.2.,2013-08-17 03:02:00,
2013-08-16 23:07:00,62.5,59.5,30.13,West,259,0.0,0.0,90,0.00,,,0.00,0,HR-IXPWINDi_r2_v1.2.,2013-08-17 03:07:00,
2013-08-16 23:12:00,62.5,59.5,30.12,NNW,333,0.0,0.0,90,0.00,,,0.00,0,HR-IXPWINDi_r2_v1.2.,2013-08-17 03:12:00,
2013-08-16 23:17:00,62.1,59.1,30.13,NNW,332,0.0,0.0,90,0.00,,,0.00,0,HR-IXPWINDi_r2_v1.2.,2013-08-17 03:17:00,
2013-08-16 23:23:00,62.3,59.3,30.13,NNW,330,0.0,0.0,90,0.00,,,0.00,0,HR-IXPWINDi_r2_v1.2.,2013-08-17 03:23:00,
2013-08-16 23:28:00,61.9,59.2,30.13,NNW,330,0.0,0.0,91,0.00,,,0.00,0,HR-IXPWINDi_r2_v1.2.,2013-08-17 03:28:00,
2013-08-16 23:33:00,62.0,59.3,30.13,NNW,330,0.0,0.0,91,0.00,,,0.00,0,HR-IXPWINDi_r2_v1.2.,2013-08-17 03:33:00,
2013-08-16 23:38:00,61.9,59.2,30.13,NNW,330,0.0,0.0,91,0.00,,,0.00,0,HR-IXPWINDi_r2_v1.2.,2013-08-17 03:38:00,
2013-08-16 23:43:00,62.2,59.5,30.13,NNW,330,0.0,0.0,91,0.00,,,0.00,0,HR-IXPWINDi_r2_v1.2.,2013-08-17 03:43:00,
2013-08-16 23:48:00,61.7,59.0,30.13,NNW,330,0.0,0.0,91,0.00,,,0.00,0,HR-IXPWINDi_r2_v1.2.,2013-08-17 03:48:00,
2013-08-16 23:53:00,61.6,59.2,30.13,NNW,330,0.0,0.0,92,0.00,,,0.00,0,HR-IXPWINDi_r2_v1.2.,2013-08-17 03:53:00,
2013-08-16 23:59:00,61.4,59.0,30.13,NNW,346,0.0,0.0,92,0.00,,,0.00,0,HR-IXPWINDi_r2_v1.2.,2013-08-17 03:59:00,